Location: Godiavel Galaoual
(15.2485°N, 12.6604°W)
Time: 20:28:59
(UTC+00:00)

AO-85 - Visible Passes

Search period start: 23 July 2021 00:00
Search period end: 02 August 2021 00:00
Orbit: 521 x 762 km, 64.8° (Epoch: 12 March)

Date Brightness Start Highest point End Pass type
(mag) Time Alt. Az. Time Alt. Az. Time Alt. Az.
23 Jul ? 03:55:55 15° E 03:55:55 15° E 03:57:50 10° ENE visible
23 Jul ? 05:33:33 19° W 05:35:14 25° WNW 05:38:59 10° N visible
24 Jul ? 04:20:14 43° ENE 04:20:14 43° ENE 04:23:41 10° NE visible
25 Jul ? 04:44:29 38° NNW 04:44:29 38° NNW 04:47:56 10° N visible
26 Jul ? 03:31:04 13° NE 03:31:04 13° NE 03:31:39 10° NE visible
26 Jul ? 05:08:40 14° NW 05:08:40 14° NW 05:10:35 10° NNW visible
27 Jul ? 03:55:11 19° NNE 03:55:11 19° NNE 03:56:32 10° NNE visible
28 Jul ? 04:19:15 14° NNW 04:19:15 14° NNW 04:20:07 10° N visible
